QPF
0.00 0.00 0.00 0.00 0.00 0.00 0.00 0.00 0.00 0.00 0.00 0.00 0.00 0.00 0.00 0.00 0.00 0.00 0.00 0.00 0.00 0.00 0.00 0.00 0.03 0.02 0.04 0.08 0.03 0.02 0.00 0.01 0.02 0.01 0.02 0.03 0.03 0.01 0.01 0.01 0.01 0.00 0.00 0.00 0.00 0.00 0.00 0.00 0.00
0.00 0.00 0.00 0.00 0.00 0.00 0.00 0.00 0.00 0.00 0.00 0.00 0.00 0.00 0.00 0.00 0.00 0.00 0.00 0.00 0.00 0.00 0.00 0.00 0.00 0.01 0.02 0.00 0.00 0.00 0.03 0.06 0.02 0.01 0.04 0.09 0.04 0.02 0.00 0.00 0.00 0.00 0.00 0.00 0.00 0.00 0.00 0.00 0.00
0.00 0.00 0.00 0.00 0.00 0.00 0.00 0.00 0.00 0.00 0.00 0.00 0.00 0.00 0.00 0.00 0.00 0.00 0.00 0.00 0.00 0.00 0.00 0.00 0.00 0.00 0.00 0.00 0.00 0.01 0.03 0.01 0.02 0.03 0.04 0.02 0.02 0.01 0.00 0.00 0.00 0.00 0.00 0.00 0.00 0.00 0.00 0.00 0.00
0.00 0.00 0.00 0.00 0.00 0.00 0.00 0.00 0.00 0.00 0.00 0.00 0.00 0.00 0.00 0.00 0.00 0.00 0.00 0.00 0.00 0.00 0.00 0.00 0.00 0.00 0.00 0.01 0.00 0.00 0.00 0.01 0.01 0.00 0.00 0.00 0.00 0.00 0.00 0.00 0.00 0.00 0.00 0.00 0.00 0.00 0.00 0.00 0.00
0.00 0.00 0.00 0.00 0.00 0.00 0.00 0.00 0.00 0.00 0.00 0.00 0.00 0.00 0.00 0.00 0.00 0.00 0.00 0.00 0.00 0.00 0.00 0.00 0.00 0.00 0.00 0.00 0.00 0.00 0.02 0.01 0.00 0.00 0.00 0.00 0.00 0.02 0.01 0.00 0.00 0.00 0.00 0.00 0.00 0.00 0.00 0.00 0.00
0.00 0.00 0.00 0.00 0.00 0.00 0.00 0.00 0.00 0.00 0.00 0.00 0.00 0.00 0.00 0.00 0.00 0.00 0.00 0.00 0.00 0.00 0.00 0.00 0.00 0.00 0.01 0.01 0.00 0.01 0.02 0.00 0.00 0.00 0.00 0.00 0.00 0.00 0.00 0.00 0.00 0.00 0.00 0.00 0.00 0.00 0.00 0.00 0.00
0.00 0.00 0.00 0.00 0.00 0.00 0.00 0.00 0.00 0.00 0.00 0.00 0.00 0.00 0.00 0.00 0.00 0.00 0.00 0.00 0.00 0.00 0.00 0.00 0.00 0.00 0.01 0.03 0.00 0.02 0.00 0.00 0.00 0.00 0.00 0.00 0.00 0.00 0.00 0.00 0.00 0.00 0.00 0.00 0.00 0.00 0.00 0.00 0.00
0.00 0.00 0.00 0.00 0.00 0.00 0.00 0.00 0.00 0.00 0.00 0.00 0.00 0.00 0.00 0.00 0.00 0.00 0.00 0.00 0.00 0.00 0.00 0.00 0.00 0.01 0.00 0.02 0.01 0.03 0.00 0.00 0.00 0.00 0.00 0.00 0.00 0.00 0.00 0.00 0.00 0.00 0.00 0.00 0.00 0.00 0.00 0.00 0.00
0.00 0.00 0.00 0.00 0.00 0.00 0.00 0.00 0.00 0.00 0.00 0.00 0.00 0.00 0.00 0.00 0.00 0.00 0.00 0.00 0.00 0.00 0.00 0.03 0.00 0.00 0.00 0.00 0.00 0.00 0.00 0.00 0.00 0.00 0.00 0.00 0.00 0.00 0.00 0.00 0.00 0.00 0.00 0.00 0.00 0.00 0.00 0.00 0.00
0.00 0.00 0.00 0.00 0.00 0.00 0.00 0.00 0.00 0.00 0.00 0.00 0.00 0.00 0.00 0.00 0.00 0.00 0.00 0.00 0.00 0.00 0.00 0.04 0.00 0.00 0.00 0.00 0.00 0.00 0.00 0.00 0.00 0.00 0.00 0.00 0.00 0.00 0.00 0.00 0.00 0.00 0.00 0.00 0.00 0.00 0.00 0.00 0.00
0.00 0.00 0.00 0.00 0.00 0.00 0.00 0.00 0.00 0.00 0.00 0.00 0.00 0.00 0.00 0.00 0.00 0.00 0.00 0.00 0.00 0.00 0.00 0.00 0.00 0.00 0.00 0.00 0.00 0.00 0.00 0.00 0.00 0.00 0.00 0.00 0.00 0.00 0.00 0.00 0.00 0.00 0.00 0.00 0.00 0.00 0.00 0.00 0.00
0.00 0.00 0.00 0.00 0.00 0.00 0.00 0.00 0.00 0.00 0.00 0.00 0.00 0.00 0.00 0.00 0.00 0.00 0.00 0.00 0.00 0.00 0.00 0.00 0.00 0.00 0.00 0.00 0.00 0.00 0.00 0.00 0.00 0.00 0.00 0.00 0.00 0.00 0.00 0.00 0.00 0.00 0.00 0.00 0.00 0.00 0.00 0.00 0.00
0.00 0.00 0.00 0.00 0.00 0.00 0.00 0.00 0.00 0.00 0.00 0.00 0.00 0.00 0.00 0.00 0.00 0.00 0.00 0.00 0.00 0.00 0.00 0.00 0.00 0.00 0.00 0.00 0.00 0.00 0.00 0.00 0.00 0.00 0.00 0.00 0.00 0.00 0.00 0.00 0.00 0.00 0.00 0.00 0.00 0.00 0.00 0.00 0.00
0.00 0.00 0.00 0.00 0.00 0.00 0.00 0.00 0.00 0.00 0.00 0.00 0.00 0.00 0.00 0.00 0.00 0.00 0.00 0.00 0.00 0.00 0.00 0.00 0.00 0.00 0.00 0.00 0.00 0.00 0.00 0.00 0.00 0.00 0.00 0.00 0.00 0.00 0.00 0.00 0.00 0.00 0.00 0.00 0.00 0.00 0.00 0.00 0.00
0.01 0.01 0.00 0.00 0.00 0.00 0.00 0.00 0.00 0.00 0.00 0.00 0.00 0.00 0.00 0.00 0.00 0.00 0.00 0.00 0.00 0.00 0.00 0.00 0.00 0.00 0.00 0.00 0.00 0.00 0.00 0.00 0.00 0.00 0.00 0.00 0.00 0.00 0.00 0.00 0.00 0.00 0.00 0.00 0.00 0.00 0.00 0.00 0.00
0.02 0.02 0.01 0.00 0.00 0.00 0.00 0.00 0.00 0.00 0.00 0.00 0.00 0.00 0.00 0.00 0.00 0.00 0.00 0.00 0.00 0.00 0.00 0.00 0.00 0.00 0.00 0.00 0.00 0.00 0.00 0.00 0.00 0.00 0.00 0.00 0.00 0.00 0.00 0.00 0.00 0.00 0.00 0.00 0.00 0.00 0.00 0.00 0.00
0.00 0.00 0.00 0.02 0.00 0.00 0.00 0.00 0.00 0.00 0.00 0.00 0.00 0.00 0.00 0.00 0.00 0.00 0.00 0.00 0.00 0.00 0.00 0.00 0.00 0.00 0.00 0.00 0.00 0.00 0.00 0.00 0.00 0.00 0.00 0.00 0.00 0.00 0.00 0.00 0.00 0.00 0.00 0.00 0.00 0.00 0.00 0.00 0.00
0.00 0.00 0.00 0.01 0.01 0.00 0.00 0.00 0.00 0.00 0.00 0.00 0.00 0.00 0.00 0.00 0.00 0.00 0.00 0.00 0.00 0.00 0.00 0.00 0.00 0.00 0.00 0.00 0.00 0.00 0.00 0.00 0.00 0.00 0.00 0.00 0.00 0.00 0.00 0.00 0.00 0.00 0.00 0.00 0.00 0.00 0.00 0.00 0.00
0.00 0.00 0.00 0.00 0.00 0.00 0.00 0.01 0.00 0.00 0.00 0.00 0.00 0.00 0.00 0.00 0.00 0.00 0.00 0.00 0.00 0.00 0.00 0.00 0.00 0.00 0.00 0.00 0.00 0.00 0.00 0.00 0.00 0.00 0.00 0.00 0.00 0.00 0.00 0.00 0.00 0.00 0.00 0.00 0.00 0.00 0.00 0.00 0.00
0.00 0.00 0.00 0.00 0.00 0.00 0.00 0.00 0.00 0.00 0.00 0.00 0.00 0.00 0.00 0.00 0.00 0.00 0.00 0.00 0.00 0.00 0.00 0.00 0.00 0.00 0.00 0.00 0.00 0.00 0.00 0.00 0.00 0.00 0.00 0.00 0.00 0.00 0.00 0.00 0.00 0.00 0.00 0.00 0.00 0.00 0.00 0.00 0.00
0.00 0.00 0.00 0.00 0.00 0.00 0.00 0.00 0.00 0.00 0.01 0.04 0.01 0.00 0.00 0.00 0.00 0.00 0.00 0.00 0.00 0.00 0.00 0.00 0.00 0.00 0.00 0.00 0.00 0.00 0.00 0.00 0.00 0.00 0.00 0.00 0.00 0.00 0.00 0.00 0.00 0.00 0.00 0.00 0.00 0.00 0.00 0.00 0.00
0.00 0.00 0.00 0.00 0.00 0.00 0.00 0.00 0.00 0.00 0.00 0.01 0.05 0.05 0.01 0.00 0.00 0.00 0.00 0.00 0.00 0.00 0.00 0.00 0.00 0.00 0.00 0.00 0.00 0.00 0.01 0.00 0.00 0.00 0.00 0.00 0.00 0.00 0.00 0.00 0.00 0.00 0.00 0.00 0.00 0.00 0.00 0.00 0.00
0.00 0.00 0.00 0.00 0.00 0.00 0.00 0.00 0.00 0.00 0.00 0.00 0.00 0.03 0.05 0.01 0.00 0.00 0.00 0.00 0.00 0.00 0.00 0.00 0.00 0.00 0.00 0.00 0.03 0.01 0.00 0.00 0.00 0.00 0.00 0.00 0.00 0.00 0.00 0.00 0.00 0.00 0.00 0.00 0.00 0.00 0.00 0.00 0.00
0.00 0.00 0.00 0.00 0.00 0.00 0.00 0.00 0.00 0.00 0.00 0.00 0.00 0.01 0.06 0.06 0.03 0.00 0.00 0.00 0.00 0.00 0.00 0.00 0.00 0.00 0.00 0.00 0.01 0.00 0.00 0.00 0.00 0.00 0.00 0.00 0.00 0.00 0.00 0.00 0.00 0.00 0.00 0.00 0.00 0.00 0.00 0.00 0.00
0.00 0.00 0.00 0.00 0.00 0.00 0.00 0.00 0.00 0.00 0.00 0.00 0.00 0.00 0.01 0.03 0.02 0.00 0.00 0.00 0.00 0.00 0.00 0.00 0.00 0.00 0.00 0.00 0.00 0.00 0.00 0.00 0.00 0.00 0.00 0.00 0.00 0.00 0.00 0.00 0.00 0.00 0.00 0.00 0.00 0.00 0.00 0.00 0.00
0.00 0.00 0.00 0.00 0.00 0.00 0.00 0.00 0.00 0.00 0.00 0.00 0.00 0.00 0.00 0.02 0.03 0.00 0.00 0.00 0.00 0.00 0.00 0.00 0.00 0.00 0.00 0.00 0.00 0.00 0.00 0.00 0.00 0.01 0.01 0.00 0.00 0.00 0.00 0.00 0.00 0.00 0.00 0.00 0.00 0.00 0.00 0.00 0.00
0.00 0.00 0.00 0.00 0.00 0.00 0.00 0.00 0.00 0.00 0.00 0.00 0.00 0.00 0.01 0.04 0.04 0.00 0.00 0.00 0.00 0.01 0.01 0.00 0.04 0.02 0.02 0.01 0.06 0.07 0.03 0.04 0.03 0.09 0.05 0.01 0.00 0.00 0.00 0.00 0.00 0.00 0.00 0.00 0.00 0.00 0.00 0.00 0.00
0.00 0.00 0.00 0.00 0.00 0.00 0.00 0.00 0.00 0.00 0.00 0.00 0.00 0.01 0.04 0.04 0.02 0.02 0.02 0.04 0.09 0.08 0.10 0.10 0.10 0.06 0.01 0.00 0.00 0.00 0.00 0.00 0.00 0.05 0.04 0.00 0.00 0.00 0.00 0.00 0.00 0.00 0.00 0.00 0.00 0.00 0.00 0.00 0.00
0.00 0.00 0.00 0.00 0.00 0.00 0.00 0.00 0.00 0.00 0.00 0.00 0.01 0.06 0.09 0.05 0.09 0.12 0.08 0.14 0.21 0.12 0.05 0.03 0.00 0.00 0.00 0.00 0.00 0.00 0.00 0.00 0.00 0.00 0.00 0.00 0.00 0.00 0.01 0.00 0.00 0.00 0.00 0.00 0.00 0.00 0.00 0.00 0.00
0.00 0.00 0.00 0.00 0.00 0.00 0.00 0.00 0.00 0.00 0.00 0.00 0.02 0.03 0.02 0.02 0.04 0.12 0.21 0.21 0.23 0.15 0.05 0.01 0.00 0.00 0.00 0.00 0.00 0.00 0.00 0.00 0.00 0.00 0.00 0.00 0.00 0.00 0.00 0.00 0.01 0.05 0.01 0.00 0.00 0.00 0.00 0.00 0.00
MSLP
1010.44 1010.41 1010.46 1010.42 1010.57 1009.80 1010.08 1010.64 1010.76 1011.36 1011.76 1011.95 1012.63 1012.92 1013.58 1014.46 1014.84 1015.89 1016.77 1016.90 1016.89 1017.16 1017.57 1017.55 1017.65 1017.75 1017.75 1017.77 1017.72 1017.76 1017.84 1017.81 1017.81 1017.82 1017.91 1018.01 1017.98 1018.04 1018.22 1018.15 1018.21 1018.24 1018.23 1018.25 1018.32 1018.33 1018.42 1018.50 1018.57
1010.41 1010.51 1010.23 1009.69 1009.61 1009.34 1010.05 1010.29 1010.56 1011.01 1011.56 1012.08 1012.78 1013.17 1013.74 1014.85 1015.56 1016.25 1016.64 1017.07 1017.08 1017.42 1017.63 1017.64 1017.86 1017.86 1017.91 1017.91 1018.00 1018.07 1018.18 1018.11 1018.10 1018.28 1018.45 1018.56 1018.54 1018.51 1018.51 1018.48 1018.48 1018.49 1018.57 1018.56 1018.64 1018.74 1018.84 1018.93 1018.98
1010.47 1010.43 1010.00 1009.56 1009.63 1009.22 1009.67 1010.15 1010.62 1011.19 1011.63 1011.93 1012.76 1013.50 1014.31 1015.42 1016.16 1016.34 1016.60 1017.16 1017.39 1017.60 1017.73 1017.88 1018.08 1018.15 1018.17 1018.26 1018.24 1018.29 1018.40 1018.35 1018.44 1018.74 1018.72 1018.77 1018.80 1018.85 1018.84 1018.81 1018.80 1018.84 1018.89 1018.93 1018.97 1019.08 1019.16 1019.27 1019.32
1010.16 1010.05 1009.95 1009.57 1009.35 1009.82 1009.75 1010.27 1010.81 1011.30 1011.80 1012.28 1012.86 1013.97 1015.29 1015.88 1016.17 1016.54 1017.04 1017.20 1017.46 1017.75 1017.89 1018.17 1018.30 1018.44 1018.48 1018.48 1018.58 1018.65 1018.59 1018.69 1018.76 1018.99 1019.02 1019.06 1019.06 1019.04 1018.99 1018.99 1019.02 1019.10 1019.16 1019.24 1019.32 1019.36 1019.41 1019.47 1019.47
1010.14 1009.81 1009.49 1009.35 1009.53 1009.86 1010.05 1010.49 1011.00 1011.34 1011.98 1012.71 1013.09 1014.52 1015.49 1016.57 1016.67 1016.96 1017.32 1017.36 1017.56 1017.83 1018.04 1018.25 1018.54 1018.61 1018.72 1018.78 1018.79 1018.74 1018.76 1018.97 1019.14 1019.29 1019.36 1019.32 1019.25 1019.17 1019.17 1019.17 1019.24 1019.37 1019.39 1019.47 1019.51 1019.54 1019.57 1019.55 1019.46
1009.94 1009.93 1009.41 1009.36 1009.69 1010.04 1010.25 1010.50 1011.04 1011.65 1012.40 1013.09 1013.65 1014.43 1016.29 1016.85 1016.75 1017.11 1017.45 1017.55 1017.47 1017.84 1018.26 1018.46 1018.79 1018.88 1018.97 1019.04 1019.01 1019.05 1019.18 1019.29 1019.50 1019.61 1019.59 1019.57 1019.50 1019.46 1019.42 1019.43 1019.50 1019.60 1019.59 1019.63 1019.65 1019.68 1019.67 1019.62 1019.57
1009.87 1009.76 1009.72 1009.59 1009.71 1009.89 1010.30 1010.67 1011.10 1011.71 1012.30 1013.02 1013.71 1014.58 1016.45 1016.83 1017.17 1017.42 1017.66 1017.75 1017.79 1018.04 1018.34 1018.61 1018.77 1019.01 1019.06 1019.12 1019.26 1019.28 1019.43 1019.64 1019.80 1019.88 1019.84 1019.76 1019.78 1019.72 1019.73 1019.75 1019.74 1019.78 1019.79 1019.80 1019.77 1019.74 1019.74 1019.68 1019.70
1010.16 1009.90 1009.63 1009.64 1009.61 1009.97 1010.43 1010.84 1011.51 1011.60 1012.50 1013.22 1013.70 1014.65 1015.95 1016.55 1017.22 1017.53 1017.82 1018.02 1018.13 1018.14 1018.44 1018.75 1019.01 1019.06 1019.26 1019.23 1019.37 1019.56 1019.68 1019.85 1019.97 1020.03 1019.99 1020.01 1020.00 1019.96 1019.99 1019.92 1019.90 1019.87 1019.87 1019.84 1019.79 1019.75 1019.76 1019.77 1019.79
1010.39 1009.85 1009.57 1009.41 1009.38 1009.89 1010.53 1010.90 1011.63 1012.06 1012.50 1013.13 1013.81 1014.28 1015.45 1016.62 1017.11 1017.41 1017.81 1018.10 1018.36 1018.66 1018.83 1018.87 1019.02 1019.45 1019.28 1019.46 1019.53 1019.74 1019.88 1020.03 1020.14 1020.14 1020.18 1020.02 1019.92 1019.92 1019.86 1020.04 1019.96 1019.85 1019.79 1019.74 1019.71 1019.74 1019.77 1019.82 1019.79
1009.84 1009.55 1009.25 1009.01 1009.06 1009.59 1010.32 1010.83 1011.49 1012.15 1012.66 1013.64 1014.37 1015.17 1016.11 1016.77 1017.13 1017.38 1017.69 1017.94 1018.28 1018.55 1018.96 1019.20 1018.97 1019.56 1019.34 1019.38 1019.77 1019.93 1020.00 1020.00 1020.15 1020.27 1020.33 1020.08 1020.10 1020.12 1020.01 1019.95 1020.00 1019.84 1019.71 1019.59 1019.58 1019.60 1019.56 1019.52 1019.12
1009.61 1009.27 1009.13 1008.68 1008.89 1009.41 1010.26 1011.03 1011.61 1012.08 1012.63 1013.42 1014.00 1015.24 1016.17 1016.72 1017.22 1017.55 1017.78 1017.98 1018.22 1018.48 1018.85 1019.19 1018.98 1019.74 1019.83 1019.69 1019.79 1019.91 1019.99 1020.12 1020.23 1020.41 1020.44 1020.43 1020.41 1020.27 1020.04 1019.93 1019.77 1019.64 1019.52 1019.15 1019.13 1019.10 1018.94 1018.97 1018.94
1009.29 1009.18 1008.82 1008.62 1008.88 1009.53 1010.14 1011.00 1011.66 1012.08 1012.37 1013.13 1014.09 1015.03 1015.97 1016.62 1017.00 1017.33 1017.69 1018.11 1018.30 1018.49 1018.73 1019.08 1019.46 1019.64 1019.86 1019.87 1019.90 1020.04 1020.07 1020.16 1020.14 1020.35 1020.54 1020.53 1020.32 1020.44 1020.38 1020.10 1020.00 1019.83 1019.67 1019.61 1019.45 1019.10 1019.09 1018.85 1018.90
1008.94 1008.84 1008.57 1008.78 1009.25 1009.77 1010.45 1011.14 1011.61 1012.58 1012.87 1013.29 1014.56 1015.54 1016.08 1016.59 1017.03 1017.37 1017.68 1018.15 1018.52 1018.74 1018.94 1019.30 1019.75 1019.79 1019.88 1020.13 1020.19 1020.33 1020.29 1020.23 1020.31 1020.34 1020.42 1020.36 1020.22 1020.28 1020.20 1020.19 1019.95 1019.91 1019.91 1019.80 1019.62 1019.35 1019.06 1018.91 1018.77
1009.03 1008.85 1008.79 1009.14 1009.43 1010.09 1010.56 1011.39 1011.79 1013.20 1013.53 1014.06 1014.88 1015.51 1016.05 1016.54 1016.97 1017.24 1017.57 1017.92 1018.41 1018.78 1019.07 1019.41 1019.68 1019.94 1020.08 1020.20 1020.39 1020.42 1020.44 1020.40 1020.43 1020.41 1020.42 1020.48 1020.38 1020.37 1020.18 1020.06 1019.95 1019.88 1019.97 1019.92 1019.73 1019.57 1019.18 1018.91 1018.71
1009.07 1008.84 1008.98 1009.59 1009.80 1010.29 1010.63 1011.62 1012.07 1013.11 1013.73 1014.28 1014.91 1015.60 1016.07 1016.45 1016.83 1017.08 1017.43 1017.83 1018.29 1018.78 1019.14 1019.32 1019.56 1019.88 1020.24 1020.41 1020.47 1020.48 1020.49 1020.37 1020.48 1020.45 1020.58 1020.59 1020.58 1020.50 1020.47 1020.14 1019.98 1019.94 1020.01 1019.97 1019.72 1019.49 1019.14 1018.86 1018.58
1009.11 1009.30 1009.21 1009.65 1009.84 1010.60 1010.56 1011.29 1012.42 1013.25 1013.61 1014.24 1014.94 1015.52 1015.95 1016.22 1016.54 1016.92 1017.38 1017.72 1018.09 1018.49 1018.98 1019.29 1019.41 1019.54 1019.90 1020.19 1020.43 1020.47 1020.48 1020.52 1020.47 1020.43 1020.45 1020.54 1020.53 1020.55 1020.49 1020.19 1020.10 1020.24 1020.01 1019.92 1019.72 1019.54 1019.33 1019.13 1018.87
1009.20 1008.94 1009.17 1009.44 1009.67 1010.09 1010.58 1011.33 1012.45 1013.11 1013.58 1014.08 1014.71 1015.22 1015.67 1016.02 1016.41 1016.71 1017.10 1017.48 1017.80 1018.36 1018.75 1019.18 1019.49 1019.67 1020.03 1020.29 1020.48 1020.55 1020.56 1020.55 1020.39 1020.36 1020.33 1020.45 1020.47 1020.49 1020.54 1020.36 1020.31 1020.45 1020.09 1019.96 1019.91 1019.75 1019.73 1019.37 1019.12
1008.35 1008.59 1008.85 1008.69 1009.27 1009.80 1010.38 1011.00 1012.08 1012.87 1013.24 1013.68 1014.33 1014.83 1015.27 1015.48 1015.58 1016.11 1016.67 1017.10 1017.61 1018.18 1018.71 1019.04 1019.35 1019.69 1019.92 1020.14 1020.44 1020.41 1020.33 1020.22 1020.20 1020.15 1020.13 1020.32 1020.31 1020.53 1020.56 1020.32 1020.41 1020.47 1020.14 1020.01 1020.09 1020.08 1019.88 1019.77 1019.52
1007.98 1008.23 1008.27 1008.46 1008.93 1009.37 1009.99 1010.82 1011.55 1012.37 1013.06 1013.51 1013.95 1014.40 1014.71 1014.88 1015.19 1015.72 1016.25 1016.80 1017.38 1017.88 1018.30 1018.82 1019.19 1019.47 1019.82 1020.03 1020.12 1020.21 1020.06 1019.98 1019.95 1019.86 1020.00 1020.19 1020.30 1020.40 1020.50 1020.26 1020.28 1020.31 1020.29 1020.28 1020.27 1020.08 1019.95 1019.51 1019.55
1007.79 1007.99 1008.03 1008.41 1008.75 1009.10 1009.79 1010.35 1011.19 1011.82 1012.12 1012.67 1013.28 1013.82 1014.16 1014.47 1014.86 1015.29 1015.79 1016.31 1016.81 1017.31 1017.84 1018.41 1018.84 1019.22 1019.51 1019.69 1019.96 1020.05 1020.00 1019.89 1019.84 1019.69 1019.82 1019.94 1020.10 1020.19 1020.28 1020.33 1020.25 1020.19 1020.14 1020.21 1020.20 1020.17 1019.79 1019.63 1019.70
1007.56 1007.60 1007.78 1007.98 1008.80 1009.36 1009.58 1010.06 1010.98 1011.66 1012.28 1012.80 1013.16 1013.43 1013.77 1013.91 1014.22 1014.81 1015.52 1015.88 1016.43 1016.86 1017.34 1017.79 1018.32 1018.72 1019.15 1019.49 1019.79 1019.88 1019.93 1019.91 1019.78 1019.73 1019.66 1019.40 1019.63 1019.79 1019.99 1020.03 1020.10 1020.16 1020.20 1019.93 1020.02 1020.00 1019.98 1019.54 1019.57
1007.36 1007.73 1007.84 1008.23 1008.40 1008.80 1009.61 1009.41 1010.74 1011.44 1012.02 1012.53 1013.22 1013.52 1013.69 1013.90 1014.25 1014.57 1015.08 1015.50 1015.75 1016.09 1016.86 1017.51 1018.10 1018.45 1018.81 1019.34 1019.58 1019.67 1019.51 1019.50 1019.38 1019.58 1019.50 1019.38 1019.48 1019.42 1019.44 1019.53 1019.65 1019.75 1019.67 1019.77 1019.67 1019.66 1019.93 1019.98 1019.46
1008.02 1008.09 1008.33 1008.65 1008.76 1009.10 1010.03 1010.37 1010.89 1011.47 1011.84 1012.46 1013.01 1013.65 1013.83 1013.97 1014.17 1014.29 1014.60 1015.02 1015.48 1016.20 1016.49 1017.09 1017.76 1018.36 1018.77 1019.10 1019.38 1019.51 1019.56 1019.42 1019.50 1019.56 1019.53 1019.37 1019.30 1019.26 1019.17 1019.18 1019.20 1019.22 1019.07 1019.09 1019.43 1019.40 1019.58 1019.60 1019.61
1008.39 1008.52 1009.02 1009.26 1009.22 1009.45 1010.74 1011.18 1011.46 1012.17 1012.93 1012.98 1012.96 1013.21 1013.95 1014.38 1014.64 1014.87 1015.23 1015.50 1015.96 1016.27 1016.84 1017.06 1017.73 1018.20 1018.55 1018.87 1019.10 1019.31 1019.38 1019.43 1019.32 1019.12 1019.06 1018.93 1018.84 1018.71 1018.71 1018.77 1018.79 1018.63 1018.55 1018.60 1018.55 1018.90 1019.20 1019.30 1019.29
1008.48 1008.38 1008.66 1008.98 1009.41 1009.89 1011.63 1012.15 1012.60 1013.29 1013.54 1013.42 1012.91 1012.84 1013.85 1014.53 1014.93 1015.19 1015.52 1015.63 1015.81 1016.06 1016.65 1016.99 1017.55 1017.96 1018.18 1018.57 1018.81 1018.95 1019.10 1019.26 1019.07 1018.91 1018.66 1018.64 1018.39 1018.22 1018.19 1018.23 1018.17 1018.00 1017.95 1017.99 1018.07 1018.22 1018.47 1018.69 1018.77
1008.98 1008.72 1008.85 1009.19 1009.91 1010.66 1012.22 1012.39 1013.35 1014.33 1014.25 1013.88 1013.14 1013.08 1013.88 1014.83 1015.37 1015.51 1015.84 1016.12 1016.52 1016.86 1017.16 1017.08 1017.73 1017.97 1018.16 1018.38 1018.50 1019.01 1019.16 1018.98 1018.86 1018.73 1018.65 1018.42 1018.11 1017.80 1017.42 1017.43 1017.42 1017.22 1017.21 1017.18 1017.29 1017.62 1017.77 1017.89 1018.04
1009.57 1009.77 1010.45 1010.31 1011.80 1011.50 1012.47 1013.48 1014.17 1014.75 1014.96 1014.50 1014.26 1014.46 1015.10 1015.76 1016.05 1016.33 1016.91 1017.16 1017.46 1018.04 1018.24 1018.21 1018.71 1018.99 1018.95 1018.63 1018.66 1018.75 1018.99 1019.22 1019.07 1018.83 1018.65 1018.28 1018.03 1017.45 1017.01 1016.81 1016.92 1016.67 1016.52 1016.46 1016.66 1016.64 1016.76 1017.03 1017.18
1009.41 1010.63 1010.78 1010.91 1011.22 1011.49 1012.63 1013.55 1013.91 1015.00 1015.59 1015.59 1015.62 1015.98 1016.36 1016.69 1016.93 1017.41 1017.98 1018.76 1018.52 1019.15 1019.00 1019.34 1019.32 1019.32 1019.13 1019.19 1019.18 1019.16 1019.30 1019.26 1019.30 1018.75 1018.43 1018.16 1017.71 1017.33 1016.94 1016.65 1016.43 1016.26 1016.21 1016.07 1016.09 1015.97 1015.89 1016.14 1016.11
1010.65 1010.73 1011.45 1011.51 1011.73 1011.43 1012.39 1013.53 1015.29 1015.94 1016.26 1016.41 1016.62 1016.82 1017.30 1017.62 1018.28 1018.83 1019.02 1019.59 1019.59 1019.96 1020.18 1020.31 1019.78 1019.56 1019.46 1019.43 1019.51 1019.51 1019.35 1019.17 1018.77 1018.46 1018.30 1018.01 1017.68 1017.29 1016.83 1016.47 1016.22 1015.92 1015.72 1015.68 1015.55 1015.31 1015.10 1015.06 1015.15
1010.90 1011.10 1011.14 1010.83 1011.92 1012.43 1012.81 1014.48 1015.95 1016.56 1016.83 1017.08 1017.64 1018.21 1018.79 1019.08 1019.53 1019.98 1020.25 1020.52 1020.66 1021.02 1020.98 1021.13 1021.07 1020.54 1020.40 1020.32 1020.13 1019.88 1019.56 1019.25 1018.84 1018.56 1018.13 1017.88 1017.51 1017.12 1016.75 1016.27 1015.87 1015.67 1015.50 1015.22 1014.87 1014.67 1014.40 1014.18 1014.09
Thickness
5789 5789 5788 5781 5762 5765 5744 5748 5765 5753 5757 5772 5770 5764 5759 5756 5754 5747 5762 5765 5766 5765 5763 5763 5763 5762 5762 5763 5764 5764 5763 5764 5765 5766 5766 5766 5766 5766 5765 5765 5765 5764 5764 5763 5763 5762 5761 5760 5759
5791 5791 5789 5779 5762 5749 5743 5763 5757 5765 5770 5774 5769 5767 5762 5751 5760 5758 5761 5766 5767 5765 5764 5764 5764 5764 5764 5764 5763 5764 5762 5765 5766 5765 5765 5764 5764 5764 5763 5764 5763 5763 5763 5763 5762 5761 5760 5760 5759
5795 5795 5782 5772 5760 5753 5749 5765 5766 5769 5777 5774 5765 5771 5763 5752 5758 5761 5769 5767 5766 5765 5766 5764 5764 5763 5763 5763 5764 5764 5764 5766 5766 5764 5764 5764 5764 5763 5763 5763 5763 5763 5762 5762 5761 5761 5761 5760 5760
5795 5793 5789 5772 5761 5763 5766 5770 5772 5769 5775 5778 5774 5756 5763 5768 5765 5768 5769 5768 5767 5766 5766 5764 5763 5762 5763 5763 5763 5763 5766 5766 5766 5764 5763 5763 5763 5764 5764 5765 5764 5763 5763 5762 5761 5762 5762 5762 5762
5799 5790 5774 5770 5766 5771 5777 5779 5777 5770 5771 5771 5775 5755 5758 5763 5770 5769 5768 5769 5768 5767 5766 5764 5763 5762 5761 5762 5763 5765 5766 5765 5764 5763 5763 5763 5764 5765 5765 5766 5766 5764 5764 5764 5764 5764 5764 5764 5765
5788 5788 5774 5763 5765 5772 5781 5788 5781 5773 5771 5769 5768 5764 5754 5768 5770 5770 5770 5770 5771 5769 5765 5764 5762 5762 5761 5761 5763 5765 5765 5764 5763 5763 5762 5763 5765 5765 5766 5767 5767 5766 5766 5766 5766 5766 5766 5766 5766
5790 5783 5768 5769 5767 5771 5777 5790 5779 5775 5773 5769 5777 5760 5756 5764 5770 5770 5769 5769 5769 5768 5766 5764 5763 5762 5761 5761 5762 5764 5764 5763 5763 5763 5762 5763 5764 5765 5767 5767 5768 5767 5767 5767 5768 5768 5768 5768 5768
5794 5789 5775 5773 5768 5768 5785 5787 5788 5786 5773 5786 5785 5758 5751 5765 5769 5770 5769 5768 5768 5769 5767 5764 5763 5762 5761 5761 5763 5764 5765 5764 5764 5763 5763 5764 5764 5766 5767 5769 5769 5770 5770 5770 5770 5770 5769 5770 5770
5801 5785 5772 5776 5776 5777 5791 5783 5791 5793 5782 5782 5782 5781 5777 5772 5771 5770 5767 5766 5766 5765 5765 5764 5764 5762 5763 5762 5764 5764 5766 5765 5764 5764 5764 5766 5767 5768 5770 5770 5771 5772 5773 5773 5773 5772 5772 5771 5772
5794 5787 5787 5801 5800 5789 5792 5792 5788 5782 5779 5773 5772 5778 5776 5772 5770 5767 5765 5765 5764 5763 5763 5762 5765 5763 5765 5766 5765 5765 5766 5767 5766 5765 5765 5767 5768 5770 5771 5772 5773 5775 5776 5777 5777 5776 5777 5777 5778
5798 5791 5802 5808 5809 5806 5795 5790 5794 5786 5775 5779 5775 5771 5773 5771 5768 5765 5765 5766 5766 5766 5764 5762 5765 5763 5765 5767 5768 5768 5769 5768 5767 5766 5766 5767 5768 5771 5773 5774 5775 5777 5778 5780 5781 5781 5783 5783 5783
5801 5807 5810 5812 5816 5806 5797 5798 5787 5791 5790 5795 5789 5784 5778 5771 5770 5769 5769 5767 5767 5765 5763 5763 5763 5764 5765 5767 5768 5769 5770 5769 5769 5768 5768 5768 5770 5771 5773 5775 5775 5777 5778 5779 5781 5783 5783 5785 5786
5808 5812 5820 5819 5815 5810 5807 5794 5791 5785 5793 5796 5787 5781 5776 5773 5771 5773 5775 5771 5768 5765 5764 5764 5763 5764 5766 5767 5768 5768 5769 5770 5770 5770 5770 5772 5773 5775 5775 5776 5778 5778 5778 5779 5781 5783 5785 5787 5788
5813 5816 5816 5815 5813 5809 5798 5793 5796 5784 5792 5787 5782 5779 5778 5776 5775 5775 5774 5773 5771 5769 5768 5766 5766 5765 5766 5767 5768 5768 5769 5770 5770 5770 5771 5772 5774 5775 5777 5778 5779 5780 5778 5779 5781 5783 5786 5787 5788
5814 5807 5812 5806 5807 5801 5808 5783 5784 5789 5790 5783 5781 5779 5778 5778 5778 5777 5777 5775 5774 5771 5770 5769 5768 5766 5766 5766 5768 5770 5770 5770 5770 5770 5771 5772 5773 5775 5776 5778 5779 5780 5779 5780 5783 5785 5788 5789 5791
5803 5803 5785 5801 5805 5800 5804 5775 5785 5790 5788 5782 5780 5778 5777 5779 5781 5781 5780 5779 5778 5776 5773 5771 5770 5770 5768 5768 5768 5769 5771 5770 5771 5772 5772 5773 5774 5775 5776 5779 5779 5778 5779 5780 5782 5784 5787 5789 5791
5796 5782 5786 5792 5809 5800 5797 5778 5786 5793 5789 5783 5781 5778 5778 5779 5781 5783 5784 5783 5782 5780 5777 5774 5771 5770 5769 5768 5767 5768 5769 5770 5772 5772 5773 5774 5775 5775 5776 5777 5778 5777 5779 5779 5781 5783 5783 5785 5787
5787 5787 5791 5792 5803 5802 5792 5788 5789 5790 5790 5786 5785 5783 5780 5782 5785 5787 5787 5786 5784 5782 5778 5777 5775 5772 5769 5767 5767 5768 5770 5772 5773 5774 5775 5775 5776 5775 5775 5777 5777 5777 5779 5781 5779 5779 5782 5783 5784
5807 5800 5796 5804 5810 5801 5795 5789 5790 5792 5788 5785 5786 5785 5785 5785 5792 5791 5790 5789 5784 5783 5780 5776 5774 5774 5771 5769 5766 5767 5770 5774 5775 5776 5776 5776 5776 5776 5775 5776 5777 5777 5779 5780 5779 5780 5779 5783 5784
5803 5795 5796 5804 5811 5807 5797 5793 5796 5796 5796 5795 5792 5789 5790 5790 5791 5792 5792 5791 5789 5786 5783 5779 5776 5774 5773 5772 5769 5769 5769 5772 5774 5775 5775 5775 5774 5774 5774 5774 5775 5776 5778 5779 5780 5779 5780 5781 5781
5796 5796 5795 5799 5801 5803 5798 5789 5787 5796 5797 5796 5796 5796 5796 5796 5794 5793 5789 5790 5790 5786 5784 5782 5780 5778 5774 5772 5769 5768 5769 5769 5770 5773 5775 5778 5777 5776 5775 5775 5773 5774 5774 5778 5778 5779 5778 5778 5781
5791 5802 5801 5796 5795 5781 5794 5777 5780 5790 5790 5792 5789 5789 5791 5793 5793 5793 5791 5790 5791 5790 5787 5784 5781 5779 5778 5773 5770 5769 5770 5768 5772 5772 5774 5773 5774 5775 5776 5777 5777 5776 5775 5775 5777 5779 5776 5775 5776
5788 5799 5793 5789 5786 5784 5775 5774 5778 5786 5783 5787 5790 5786 5788 5793 5793 5792 5793 5792 5792 5788 5787 5785 5782 5777 5775 5773 5771 5769 5767 5770 5772 5772 5771 5773 5772 5774 5775 5775 5776 5776 5779 5778 5776 5775 5776 5777 5775
5788 5787 5780 5776 5779 5764 5757 5765 5766 5768 5769 5778 5789 5794 5787 5785 5786 5788 5789 5788 5785 5787 5781 5782 5776 5775 5773 5770 5770 5768 5766 5765 5767 5770 5770 5773 5775 5775 5775 5775 5776 5777 5778 5778 5779 5778 5777 5776 5776
5785 5783 5757 5752 5753 5757 5751 5750 5759 5765 5772 5779 5785 5793 5787 5784 5782 5781 5780 5781 5781 5782 5780 5780 5778 5773 5772 5768 5767 5767 5766 5765 5766 5767 5770 5770 5772 5774 5774 5774 5775 5778 5779 5779 5778 5779 5778 5777 5776
5768 5778 5759 5727 5738 5748 5746 5744 5750 5761 5771 5778 5788 5792 5787 5780 5777 5777 5777 5775 5772 5771 5772 5778 5772 5767 5757 5766 5765 5762 5761 5762 5763 5765 5767 5767 5770 5773 5775 5776 5775 5778 5779 5780 5780 5779 5779 5778 5777
5759 5759 5758 5741 5719 5737 5737 5739 5751 5755 5755 5769 5774 5776 5772 5768 5768 5767 5764 5764 5762 5757 5755 5759 5757 5754 5754 5757 5759 5758 5755 5750 5754 5759 5762 5765 5766 5770 5774 5775 5776 5777 5779 5781 5780 5781 5781 5779 5778
5767 5755 5746 5739 5715 5716 5722 5724 5737 5739 5739 5752 5756 5755 5756 5758 5759 5755 5752 5744 5748 5742 5746 5744 5744 5742 5747 5749 5750 5749 5746 5747 5748 5755 5758 5760 5764 5766 5769 5771 5774 5776 5776 5777 5778 5780 5782 5778 5781
5747 5745 5728 5734 5726 5726 5716 5724 5727 5723 5731 5737 5741 5745 5743 5744 5739 5736 5736 5733 5734 5733 5731 5728 5732 5734 5739 5742 5742 5741 5741 5743 5746 5749 5751 5753 5756 5759 5762 5766 5768 5770 5773 5773 5775 5777 5780 5780 5779
5741 5734 5740 5737 5713 5714 5724 5713 5720 5719 5726 5731 5725 5724 5723 5724 5723 5721 5720 5721 5720 5717 5714 5709 5712 5718 5724 5730 5731 5731 5735 5737 5739 5739 5743 5746 5749 5751 5754 5759 5762 5764 5765 5768 5772 5773 5776 5778 5778